| time (UTC) | temp C | wind direction | speed KPH | gust KPH | rain 1hr cm | rain 24hr cm | rain mn cm | humidity % | barometer mb |
| 20260508050812 | 20 | 360 | 0.0 | 4.8 | 0.00 | 0.00 | 0.00 | 95 | 914.8 |
| 20260508050614 | 21 | 70 | 0.0 | 4.8 | 0.00 | 0.00 | 0.00 | 96 | 914.8 |
| 20260508050014 | 21 | 251 | 1.6 | 4.8 | 0.00 | 0.00 | 0.00 | 95 | 914.9 |
| 20260508045812 | 20 | 199 | 1.6 | 4.8 | 0.00 | 0.00 | 0.00 | 95 | 914.9 |
| 20260508045414 | 20 | 95 | 1.6 | 4.8 | 0.00 | 0.00 | 0.00 | 95 | 914.9 |
| 20260508045314 | 20 | 4 | 0.0 | 4.8 | 0.00 | 0.00 | 0.00 | 95 | 914.9 |
| 20260508044814 | 20 | 264 | 3.2 | 8.0 | 0.00 | 0.00 | 0.00 | 95 | 915.0 |
| 20260508044812 | 20 | 263 | 3.2 | 8.0 | 0.00 | 0.00 | 0.00 | 95 | 915.0 |
| 20260508044312 | 21 | 224 | 1.6 | 4.8 | 0.00 | 0.00 | 0.00 | 94 | 915.0 |
| 20260508044213 | 21 | 188 | 0.0 | 3.2 | 0.00 | 0.00 | 0.00 | 94 | 915.0 |
| 20260508043812 | 21 | 186 | 1.6 | 8.0 | 0.00 | 0.00 | 0.00 | 94 | 915.1 |
| 20260508043614 | 21 | 176 | 1.6 | 9.7 | 0.00 | 0.00 | 0.00 | 94 | 915.1 |
| 20260508043312 | 21 | 108 | 3.2 | 9.7 | 0.00 | 0.00 | 0.00 | 93 | 915.2 |
| 20260508043013 | 21 | 181 | 4.8 | 9.7 | 0.00 | 0.00 | 0.00 | 94 | 915.2 |
| 20260508042812 | 21 | 97 | 0.0 | 9.7 | 0.00 | 0.00 | 0.00 | 94 | 915.2 |
| 20260508042313 | 21 | 213 | 0.0 | 1.6 | 0.00 | 0.00 | 0.00 | 94 | 915.2 |
| 20260508041814 | 21 | 16 | 1.6 | 4.8 | 0.00 | 0.00 | 0.00 | 93 | 915.3 |
| 20260508041213 | 21 | 12 | 3.2 | 4.8 | 0.00 | 0.00 | 0.00 | 93 | 915.3 |
| 20260508040613 | 21 | 39 | 1.6 | 8.0 | 0.00 | 0.00 | 0.00 | 93 | 915.3 |
| 20260508040312 | 21 | 21 | 4.8 | 8.0 | 0.00 | 0.00 | 0.00 | 92 | 915.3 |
| 20260508040013 | 21 | 82 | 4.8 | 8.0 | 0.00 | 0.00 | 0.00 | 92 | 915.3 |
| 20260508035812 | 21 | 158 | 1.6 | 6.4 | 0.00 | 0.00 | 0.00 | 92 | 915.3 |
| 20260508035413 | 21 | 65 | 1.6 | 6.4 | 0.00 | 0.00 | 0.00 | 92 | 915.3 |
| 20260508035312 | 21 | 105 | 0.0 | 6.4 | 0.00 | 0.00 | 0.00 | 92 | 915.3 |
| 20260508033812 | 21 | 169 | 3.2 | 6.4 | 0.00 | 0.00 | 0.00 | 92 | 915.4 |
| 20260508033613 | 21 | 87 | 0.0 | 6.4 | 0.00 | 0.00 | 0.00 | 91 | 915.4 |
| 20260508033013 | 21 | 87 | 6.4 | 14.5 | 0.00 | 0.00 | 0.00 | 92 | 915.4 |
| 20260508032812 | 21 | 83 | 9.7 | 14.5 | 0.00 | 0.00 | 0.00 | 92 | 915.4 |
| 20260508032413 | 21 | 126 | 6.4 | 11.3 | 0.00 | 0.00 | 0.00 | 92 | 915.4 |
| 20260508032311 | 21 | 122 | 4.8 | 9.7 | 0.00 | 0.00 | 0.00 | 93 | 915.4 |
| 20260508030811 | 20 | 66 | 0.0 | 6.4 | 0.00 | 0.00 | 0.00 | 95 | 915.7 |
| 20260508030613 | 20 | 143 | 0.0 | 0.0 | 0.00 | 0.00 | 0.00 | 95 | 915.8 |
| 20260508023311 | 21 | 83 | 1.6 | 8.0 | 0.00 | 0.00 | 0.00 | 91 | 915.9 |
| 20260508023012 | 21 | 126 | 0.0 | 4.8 | 0.00 | 0.00 | 0.00 | 91 | 916.0 |
| 20260508022811 | 21 | 155 | 0.0 | 3.2 | 0.00 | 0.00 | 0.00 | 92 | 916.1 |
| 20260508021813 | 21 | 58 | 0.0 | 1.6 | 0.00 | 0.00 | 0.00 | 93 | 916.1 |
| 20260508021311 | 21 | 114 | 1.6 | 6.4 | 0.00 | 0.00 | 0.00 | 93 | 916.1 |
| 20260508021212 | 21 | 84 | 0.0 | 4.8 | 0.00 | 0.00 | 0.00 | 93 | 916.1 |
| 20260508020811 | 21 | 109 | 0.0 | 0.0 | 0.00 | 0.00 | 0.00 | 93 | 916.1 |
| 20260508020612 | 21 | 99 | 0.0 | 4.8 | 0.00 | 0.00 | 0.00 | 92 | 916.1 |
| 20260508015412 | 21 | 58 | 1.6 | 6.4 | 0.00 | 0.00 | 0.00 | 90 | 916.2 |
| 20260508014813 | 22 | 70 | 4.8 | 9.7 | 0.00 | 0.00 | 0.00 | 89 | 916.1 |
| 20260508013012 | 22 | 182 | 1.6 | 6.4 | 0.00 | 0.00 | 0.00 | 88 | 916.2 |
| 20260508012412 | 22 | 102 | 1.6 | 3.2 | 0.00 | 0.00 | 0.00 | 88 | 916.2 |
| 20260508012311 | 22 | 225 | 1.6 | 3.2 | 0.00 | 0.00 | 0.00 | 88 | 916.2 |
| 20260508011811 | 22 | 281 | 4.8 | 8.0 | 0.00 | 0.00 | 0.00 | 88 | 916.1 |
| 20260508011311 | 23 | 306 | 4.8 | 8.0 | 0.00 | 0.00 | 0.00 | 86 | 915.9 |
| 20260508011212 | 23 | 253 | 4.8 | 8.0 | 0.00 | 0.00 | 0.00 | 87 | 915.9 |
| 20260508010612 | 21 | 217 | 3.2 | 4.8 | 0.00 | 0.00 | 0.00 | 90 | 915.9 |
| 20260508010311 | 21 | 230 | 3.2 | 8.0 | 0.00 | 0.00 | 0.00 | 89 | 915.8 |
| 20260508010012 | 21 | 263 | 4.8 | 8.0 | 0.00 | 0.00 | 0.00 | 89 | 915.7 |
| 20260508005810 | 22 | 270 | 3.2 | 6.4 | 0.00 | 0.00 | 0.00 | 88 | 915.8 |
| 20260508005412 | 22 | 217 | 3.2 | 4.8 | 0.00 | 0.00 | 0.00 | 88 | 915.7 |
| 20260508005310 | 22 | 236 | 1.6 | 4.8 | 0.00 | 0.00 | 0.00 | 88 | 915.7 |
| 20260508004812 | 22 | 219 | 1.6 | 3.2 | 0.00 | 0.00 | 0.00 | 88 | 915.7 |
| 20260508004810 | 22 | 225 | 1.6 | 3.2 | 0.00 | 0.00 | 0.00 | 88 | 915.7 |
| 20260508004310 | 22 | 148 | 3.2 | 6.4 | 0.00 | 0.00 | 0.00 | 90 | 915.7 |
| 20260508004212 | 22 | 145 | 3.2 | 6.4 | 0.00 | 0.00 | 0.00 | 90 | 915.7 |
| 20260508003810 | 21 | 156 | 0.0 | 3.2 | 0.00 | 0.00 | 0.00 | 89 | 915.7 |
| 20260508003611 | 21 | 91 | 1.6 | 8.0 | 0.00 | 0.00 | 0.00 | 88 | 915.7 |
| 20260508003310 | 21 | 353 | 0.0 | 8.0 | 0.00 | 0.00 | 0.00 | 88 | 915.7 |
| 20260508003012 | 21 | 288 | 4.8 | 8.0 | 0.00 | 0.00 | 0.00 | 88 | 915.7 |
| 20260508002811 | 21 | 227 | 3.2 | 4.8 | 0.00 | 0.00 | 0.00 | 87 | 915.6 |
| 20260508002412 | 21 | 148 | 0.0 | 3.2 | 0.00 | 0.00 | 0.00 | 89 | 915.6 |
| 20260508002310 | 22 | 195 | 3.2 | 4.8 | 0.00 | 0.00 | 0.00 | 91 | 915.6 |
| 20260508001812 | 21 | 155 | 0.0 | 3.2 | 0.00 | 0.00 | 0.00 | 90 | 915.6 |
| 20260508001810 | 21 | 153 | 0.0 | 3.2 | 0.00 | 0.00 | 0.00 | 90 | 915.5 |
| 20260508001310 | 22 | 131 | 1.6 | 3.2 | 0.00 | 0.00 | 0.00 | 89 | 915.6 |
| 20260508001211 | 22 | 60 | 1.6 | 3.2 | 0.00 | 0.00 | 0.00 | 89 | 915.6 |
| 20260508000810 | 22 | 120 | 0.0 | 4.8 | 0.00 | 0.00 | 0.00 | 88 | 915.6 |
| 20260508000611 | 22 | 88 | 1.6 | 4.8 | 0.00 | 0.00 | 0.00 | 87 | 915.6 |
| 20260508000312 | 22 | 146 | 1.6 | 9.7 | 0.00 | 0.00 | 0.00 | 88 | 915.5 |
| 20260508000011 | 22 | 60 | 1.6 | 3.2 | 0.00 | 0.00 | 0.00 | 87 | 915.5 |
| 20260507235811 | 22 | 299 | 3.2 | 8.0 | 0.00 | 0.00 | 0.00 | 87 | 915.5 |
| 20260507235411 | 22 | 313 | 1.6 | 4.8 | 0.00 | 0.00 | 0.00 | 87 | 915.5 |
| 20260507235310 | 22 | 22 | 1.6 | 3.2 | 0.00 | 0.00 | 0.00 | 87 | 915.4 |
| 20260507234811 | 22 | 67 | 4.8 | 8.0 | 0.00 | 0.00 | 0.00 | 89 | 915.3 |
| 20260507234311 | 22 | 183 | 0.0 | 0.0 | 0.00 | 0.00 | 0.00 | 89 | 915.3 |
| 20260507233810 | 21 | 33 | 3.2 | 8.0 | 0.00 | 0.00 | 0.00 | 88 | 915.2 |
| 20260507233611 | 21 | 66 | 3.2 | 8.0 | 0.00 | 0.00 | 0.00 | 88 | 915.1 |
| 20260507233310 | 21 | 324 | 3.2 | 6.4 | 0.00 | 0.00 | 0.00 | 89 | 915.1 |
| 20260507233011 | 21 | 18 | 1.6 | 6.4 | 0.00 | 0.00 | 0.00 | 89 | 915.1 |
| 20260507232810 | 21 | 232 | 1.6 | 6.4 | 0.00 | 0.00 | 0.00 | 89 | 915.1 |
| 20260507232411 | 21 | 276 | 0.0 | 4.8 | 0.00 | 0.00 | 0.00 | 88 | 915.1 |
| 20260507232310 | 21 | 256 | 1.6 | 4.8 | 0.00 | 0.00 | 0.00 | 89 | 915.0 |
| 20260507231812 | 21 | 42 | 1.6 | 4.8 | 0.00 | 0.00 | 0.00 | 89 | 915.0 |
| 20260507231810 | 21 | 43 | 1.6 | 4.8 | 0.00 | 0.00 | 0.00 | 89 | 915.0 |
| 20260507231310 | 21 | 119 | 1.6 | 3.2 | 0.00 | 0.00 | 0.00 | 88 | 914.9 |
| 20260507231211 | 21 | 117 | 1.6 | 3.2 | 0.00 | 0.00 | 0.00 | 88 | 915.0 |
| 20260507230810 | 21 | 70 | 0.0 | 3.2 | 0.00 | 0.00 | 0.00 | 88 | 914.9 |
| 20260507230611 | 21 | 204 | 0.0 | 3.2 | 0.00 | 0.00 | 0.00 | 88 | 914.9 |
| 20260507230309 | 21 | 158 | 0.0 | 3.2 | 0.00 | 0.00 | 0.00 | 88 | 914.9 |
| 20260507230011 | 21 | 103 | 0.0 | 3.2 | 0.00 | 0.00 | 0.00 | 88 | 914.8 |
| 20260507225809 | 21 | 95 | 0.0 | 4.8 | 0.00 | 0.00 | 0.00 | 87 | 914.8 |
| 20260507225411 | 21 | 120 | 1.6 | 3.2 | 0.00 | 0.00 | 0.00 | 88 | 914.8 |
| 20260507225309 | 21 | 148 | 1.6 | 3.2 | 0.00 | 0.00 | 0.00 | 88 | 914.8 |
| 20260507224809 | 20 | 83 | 1.6 | 3.2 | 0.00 | 0.00 | 0.00 | 88 | 914.7 |
| 20260507224309 | 20 | 81 | 1.6 | 3.2 | 0.00 | 0.00 | 0.00 | 88 | 914.7 |
| 20260507224211 | 20 | 80 | 1.6 | 3.2 | 0.00 | 0.00 | 0.00 | 88 | 914.7 |
| 20260507223611 | 20 | 98 | 1.6 | 4.8 | 0.00 | 0.00 | 0.00 | 89 | 914.6 |
| 20260507223309 | 20 | 220 | 1.6 | 6.4 | 0.00 | 0.00 | 0.00 | 89 | 914.5 |
| 20260507223011 | 20 | 284 | 3.2 | 6.4 | 0.00 | 0.00 | 0.00 | 89 | 914.5 |
| 20260507222809 | 20 | 323 | 3.2 | 6.4 | 0.00 | 0.00 | 0.00 | 89 | 914.4 |
| 20260507222309 | 20 | 303 | 4.8 | 8.0 | 0.00 | 0.00 | 0.00 | 89 | 914.4 |
| 20260507221809 | 19 | 303 | 4.8 | 8.0 | 0.00 | 0.00 | 0.00 | 90 | 914.4 |
| 20260507221309 | 19 | 293 | 6.4 | 8.0 | 0.00 | 0.00 | 0.00 | 90 | 914.4 |
| 20260507220809 | 19 | 297 | 4.8 | 8.0 | 0.00 | 0.00 | 0.00 | 90 | 914.3 |
| 20260507220309 | 19 | 289 | 6.4 | 8.0 | 0.00 | 0.00 | 0.00 | 90 | 914.3 |
| 20260507215809 | 19 | 278 | 6.4 | 8.0 | 0.00 | 0.00 | 0.00 | 90 | 914.2 |
| 20260507215309 | 19 | 307 | 6.4 | 8.0 | 0.00 | 0.00 | 0.00 | 90 | 914.2 |
| 20260507214809 | 19 | 275 | 6.4 | 8.0 | 0.00 | 0.00 | 0.00 | 90 | 914.1 |
| 20260507214309 | 19 | 276 | 6.4 | 8.0 | 0.00 | 0.00 | 0.00 | 90 | 914.1 |
| 20260507213809 | 19 | 283 | 6.4 | 6.4 | 0.00 | 0.00 | 0.00 | 90 | 914.1 |
| 20260507213309 | 19 | 280 | 3.2 | 6.4 | 0.00 | 0.00 | 0.00 | 90 | 914.1 |
| 20260507212809 | 19 | 307 | 4.8 | 6.4 | 0.00 | 0.00 | 0.00 | 90 | 914.0 |
| 20260507212309 | 20 | 300 | 4.8 | 6.4 | 0.00 | 0.00 | 0.00 | 89 | 914.0 |
| 20260507211809 | 20 | 295 | 4.8 | 6.4 | 0.00 | 0.00 | 0.00 | 89 | 913.9 |
| 20260507211309 | 20 | 284 | 3.2 | 6.4 | 0.00 | 0.00 | 0.00 | 89 | 913.8 |
| 20260507210809 | 20 | 305 | 4.8 | 6.4 | 0.00 | 0.00 | 0.00 | 89 | 913.9 |
| 20260507210308 | 20 | 303 | 4.8 | 6.4 | 0.00 | 0.00 | 0.00 | 89 | 913.8 |
| 20260507205808 | 20 | 285 | 4.8 | 8.0 | 0.00 | 0.00 | 0.00 | 89 | 913.8 |
| 20260507205309 | 20 | 283 | 4.8 | 8.0 | 0.00 | 0.00 | 0.00 | 88 | 913.7 |
| 20260507204808 | 20 | 296 | 4.8 | 6.4 | 0.00 | 0.00 | 0.00 | 88 | 913.7 |
| 20260507204308 | 20 | 273 | 4.8 | 6.4 | 0.00 | 0.00 | 0.00 | 88 | 913.5 |
| 20260507203809 | 20 | 285 | 4.8 | 6.4 | 0.00 | 0.00 | 0.00 | 88 | 913.5 |
| 20260507203308 | 20 | 296 | 4.8 | 6.4 | 0.00 | 0.00 | 0.00 | 87 | 913.5 |
| 20260507202808 | 20 | 288 | 3.2 | 3.2 | 0.00 | 0.00 | 0.00 | 85 | 913.4 |
| 20260507202308 | 20 | 302 | 1.6 | 3.2 | 0.00 | 0.00 | 0.00 | 85 | 913.5 |
| 20260507201808 | 20 | 299 | 3.2 | 4.8 | 0.00 | 0.00 | 0.00 | 85 | 913.4 |
| 20260507201308 | 20 | 295 | 3.2 | 4.8 | 0.00 | 0.00 | 0.00 | 85 | 913.4 |
| 20260507200808 | 20 | 294 | 3.2 | 4.8 | 0.00 | 0.00 | 0.00 | 86 | 913.3 |
| 20260507200309 | 20 | 297 | 4.8 | 4.8 | 0.00 | 0.00 | 0.00 | 86 | 913.3 |
| 20260507195808 | 20 | 294 | 3.2 | 4.8 | 0.00 | 0.00 | 0.00 | 86 | 913.3 |
| 20260507195308 | 20 | 305 | 4.8 | 4.8 | 0.00 | 0.00 | 0.00 | 86 | 913.3 |
| 20260507194808 | 20 | 287 | 1.6 | 4.8 | 0.00 | 0.00 | 0.00 | 86 | 913.2 |
| 20260507194308 | 20 | 286 | 3.2 | 4.8 | 0.00 | 0.00 | 0.00 | 86 | 913.2 |
| 20260507193808 | 20 | 287 | 3.2 | 4.8 | 0.00 | 0.00 | 0.00 | 87 | 913.2 |
| 20260507193308 | 20 | 299 | 4.8 | 4.8 | 0.00 | 0.00 | 0.00 | 88 | 913.2 |
| 20260507192808 | 20 | 300 | 4.8 | 6.4 | 0.00 | 0.00 | 0.00 | 88 | 913.3 |
| 20260507192308 | 20 | 312 | 4.8 | 6.4 | 0.00 | 0.00 | 0.00 | 88 | 913.3 |
| 20260507191808 | 20 | 311 | 4.8 | 4.8 | 0.00 | 0.00 | 0.00 | 88 | 913.3 |
| 20260507191308 | 20 | 311 | 4.8 | 4.8 | 0.00 | 0.00 | 0.00 | 88 | 913.3 |
| 20260507190308 | 20 | 300 | 3.2 | 6.4 | 0.00 | 0.00 | 0.00 | 88 | 913.5 |
| 20260507185808 | 20 | 331 | 3.2 | 8.0 | 0.00 | 0.00 | 0.00 | 89 | 913.6 |
| 20260507185307 | 20 | 313 | 4.8 | 8.0 | 0.00 | 0.00 | 0.00 | 89 | 913.6 |
| 20260507184808 | 20 | 314 | 4.8 | 8.0 | 0.00 | 0.00 | 0.00 | 89 | 913.6 |
| 20260507184307 | 20 | 335 | 4.8 | 8.0 | 0.00 | 0.00 | 0.00 | 88 | 913.6 |
| 20260507183807 | 20 | 320 | 4.8 | 6.4 | 0.00 | 0.00 | 0.00 | 89 | 913.6 |
| 20260507183307 | 20 | 317 | 4.8 | 6.4 | 0.00 | 0.00 | 0.00 | 88 | 913.7 |
| 20260507182807 | 20 | 343 | 4.8 | 6.4 | 0.00 | 0.00 | 0.00 | 89 | 913.7 |
| 20260507182307 | 20 | 304 | 4.8 | 8.0 | 0.00 | 0.00 | 0.00 | 89 | 913.8 |
| 20260507181807 | 20 | 298 | 4.8 | 8.0 | 0.00 | 0.00 | 0.00 | 89 | 913.9 |
| 20260507181307 | 19 | 300 | 6.4 | 9.7 | 0.00 | 0.00 | 0.00 | 88 | 913.9 |
| 20260507180807 | 19 | 287 | 8.0 | 9.7 | 0.00 | 0.00 | 0.00 | 88 | 914.0 |
| 20260507180307 | 20 | 289 | 6.4 | 8.0 | 0.00 | 0.00 | 0.00 | 88 | 914.1 |
| 20260507175807 | 20 | 284 | 3.2 | 8.0 | 0.00 | 0.00 | 0.00 | 88 | 914.0 |
| 20260507175307 | 20 | 293 | 6.4 | 8.0 | 0.00 | 0.00 | 0.00 | 88 | 914.0 |
| 20260507174807 | 20 | 296 | 6.4 | 6.4 | 0.00 | 0.00 | 0.00 | 88 | 914.0 |
| 20260507174309 | 20 | 283 | 6.4 | 6.4 | 0.00 | 0.00 | 0.00 | 88 | 914.1 |
| 20260507173807 | 19 | 266 | 4.8 | 6.4 | 0.00 | 0.00 | 0.00 | 87 | 914.1 |
| 20260507173307 | 19 | 268 | 3.2 | 6.4 | 0.00 | 0.00 | 0.00 | 87 | 914.2 |
| 20260507172807 | 19 | 262 | 3.2 | 6.4 | 0.00 | 0.00 | 0.00 | 87 | 914.2 |
| 20260507172408 | 19 | 243 | 1.6 | 4.8 | 0.00 | 0.00 | 0.00 | 87 | 914.2 |
| 20260507172308 | 19 | 267 | 1.6 | 4.8 | 0.00 | 0.00 | 0.00 | 87 | 914.2 |
| 20260507171808 | 19 | 248 | 3.2 | 4.8 | 0.00 | 0.00 | 0.00 | 87 | 914.2 |
| 20260507171308 | 19 | 219 | 1.6 | 4.8 | 0.00 | 0.00 | 0.00 | 87 | 914.2 |
| 20260507170807 | 19 | 195 | 3.2 | 4.8 | 0.00 | 0.00 | 0.00 | 87 | 914.2 |
| 20260507170608 | 19 | 200 | 3.2 | 4.8 | 0.00 | 0.00 | 0.00 | 86 | 914.2 |
| 20260507170307 | 19 | 212 | 1.6 | 4.8 | 0.00 | 0.00 | 0.00 | 86 | 914.3 |
| 20260507170008 | 19 | 182 | 3.2 | 4.8 | 0.00 | 0.00 | 0.00 | 87 | 914.3 |
| 20260507165807 | 19 | 202 | 3.2 | 4.8 | 0.00 | 0.00 | 0.00 | 87 | 914.3 |
| 20260507165408 | 19 | 191 | 1.6 | 3.2 | 0.00 | 0.00 | 0.00 | 87 | 914.3 |
| 20260507165307 | 19 | 202 | 1.6 | 3.2 | 0.00 | 0.00 | 0.00 | 87 | 914.3 |
| 20260507164808 | 19 | 167 | 0.0 | 4.8 | 0.00 | 0.00 | 0.00 | 87 | 914.3 |
| 20260507164308 | 19 | 180 | 1.6 | 4.8 | 0.00 | 0.00 | 0.00 | 87 | 914.3 |
| 20260507164208 | 19 | 143 | 3.2 | 4.8 | 0.00 | 0.00 | 0.00 | 87 | 914.3 |
| 20260507163807 | 19 | 166 | 1.6 | 3.2 | 0.00 | 0.00 | 0.00 | 86 | 914.4 |
| 20260507163608 | 19 | 212 | 1.6 | 3.2 | 0.00 | 0.00 | 0.00 | 86 | 914.4 |
| 20260507163306 | 19 | 212 | 1.6 | 3.2 | 0.00 | 0.00 | 0.00 | 86 | 914.4 |
| 20260507163008 | 19 | 193 | 1.6 | 3.2 | 0.00 | 0.00 | 0.00 | 86 | 914.4 |
| 20260507162408 | 19 | 250 | 0.0 | 3.2 | 0.00 | 0.00 | 0.00 | 87 | 914.5 |
| 20260507162307 | 19 | 228 | 0.0 | 3.2 | 0.00 | 0.00 | 0.00 | 87 | 914.4 |
| 20260507161808 | 19 | 136 | 1.6 | 3.2 | 0.00 | 0.00 | 0.00 | 87 | 914.4 |
| 20260507161806 | 19 | 141 | 1.6 | 3.2 | 0.00 | 0.00 | 0.00 | 87 | 914.4 |
| 20260507161308 | 19 | 108 | 1.6 | 3.2 | 0.00 | 0.00 | 0.00 | 87 | 914.5 |
| 20260507161208 | 19 | 116 | 1.6 | 3.2 | 0.00 | 0.00 | 0.00 | 87 | 914.5 |
| 20260507160806 | 19 | 168 | 0.0 | 1.6 | 0.00 | 0.00 | 0.00 | 87 | 914.6 |
| 20260507160608 | 18 | 188 | 0.0 | 0.0 | 0.00 | 0.00 | 0.00 | 88 | 914.6 |
| 20260507160306 | 18 | 165 | 0.0 | 0.0 | 0.00 | 0.00 | 0.00 | 88 | 914.6 |
| 20260507160008 | 18 | 141 | 1.6 | 3.2 | 0.00 | 0.00 | 0.00 | 88 | 914.6 |
| 20260507155806 | 18 | 167 | 1.6 | 3.2 | 0.00 | 0.00 | 0.00 | 88 | 914.6 |
| 20260507155407 | 18 | 174 | 3.2 | 3.2 | 0.00 | 0.00 | 0.00 | 88 | 914.6 |
| 20260507155307 | 19 | 177 | 1.6 | 3.2 | 0.00 | 0.00 | 0.00 | 88 | 914.6 |
| 20260507154808 | 19 | 175 | 1.6 | 3.2 | 0.00 | 0.00 | 0.00 | 88 | 914.5 |
| 20260507154806 | 19 | 173 | 1.6 | 3.2 | 0.00 | 0.00 | 0.00 | 88 | 914.5 |
| 20260507154308 | 19 | 198 | 1.6 | 3.2 | 0.00 | 0.00 | 0.00 | 88 | 914.6 |
| 20260507154208 | 18 | 199 | 1.6 | 3.2 | 0.00 | 0.00 | 0.00 | 88 | 914.6 |
| 20260507153807 | 18 | 207 | 1.6 | 3.2 | 0.00 | 0.00 | 0.00 | 88 | 914.5 |
| 20260507153607 | 18 | 202 | 3.2 | 3.2 | 0.00 | 0.00 | 0.00 | 88 | 914.5 |
| 20260507153306 | 18 | 205 | 1.6 | 3.2 | 0.00 | 0.00 | 0.00 | 89 | 914.6 |
| 20260507153007 | 18 | 204 | 0.0 | 1.6 | 0.00 | 0.00 | 0.00 | 89 | 914.7 |
| 20260507152806 | 18 | 236 | 1.6 | 3.2 | 0.00 | 0.00 | 0.00 | 89 | 914.7 |
| 20260507152407 | 18 | 215 | 0.0 | 3.2 | 0.00 | 0.00 | 0.00 | 89 | 914.7 |
| 20260507152307 | 18 | 189 | 3.2 | 4.8 | 0.00 | 0.00 | 0.00 | 89 | 914.7 |
| 20260507151808 | 18 | 219 | 3.2 | 4.8 | 0.00 | 0.00 | 0.00 | 89 | 914.7 |
| 20260507151806 | 18 | 219 | 3.2 | 4.8 | 0.00 | 0.00 | 0.00 | 89 | 914.8 |
| 20260507151306 | 19 | 229 | 1.6 | 4.8 | 0.00 | 0.00 | 0.00 | 88 | 914.7 |
| 20260507151207 | 19 | 246 | 3.2 | 4.8 | 0.00 | 0.00 | 0.00 | 88 | 914.7 |
| 20260507150806 | 19 | 226 | 3.2 | 3.2 | 0.00 | 0.00 | 0.00 | 87 | 914.7 |
| 20260507150607 | 19 | 215 | 1.6 | 3.2 | 0.00 | 0.00 | 0.00 | 87 | 914.8 |
| 20260507150306 | 19 | 266 | 1.6 | 3.2 | 0.00 | 0.00 | 0.00 | 88 | 914.8 |
| 20260507150007 | 19 | 257 | 1.6 | 3.2 | 0.00 | 0.00 | 0.00 | 88 | 914.8 |
| 20260507145806 | 19 | 272 | 1.6 | 3.2 | 0.00 | 0.00 | 0.00 | 88 | 914.8 |
| 20260507145407 | 18 | 264 | 1.6 | 4.8 | 0.00 | 0.00 | 0.00 | 88 | 914.9 |
| 20260507145307 | 18 | 266 | 1.6 | 4.8 | 0.00 | 0.00 | 0.00 | 88 | 914.9 |
| 20260507144807 | 18 | 197 | 3.2 | 4.8 | 0.00 | 0.00 | 0.00 | 88 | 914.9 |
| 20260507144306 | 18 | 228 | 3.2 | 6.4 | 0.00 | 0.00 | 0.00 | 88 | 914.9 |
| 20260507144207 | 18 | 193 | 3.2 | 6.4 | 0.00 | 0.00 | 0.00 | 88 | 914.9 |
| 20260507143806 | 19 | 187 | 3.2 | 6.4 | 0.00 | 0.00 | 0.00 | 88 | 914.8 |
| 20260507143607 | 19 | 207 | 4.8 | 6.4 | 0.00 | 0.00 | 0.00 | 88 | 914.9 |
| 20260507143306 | 19 | 219 | 3.2 | 4.8 | 0.00 | 0.00 | 0.00 | 88 | 914.9 |
| 20260507143007 | 19 | 207 | 4.8 | 4.8 | 0.00 | 0.00 | 0.00 | 88 | 914.9 |
| 20260507142805 | 19 | 187 | 3.2 | 4.8 | 0.00 | 0.00 | 0.00 | 88 | 914.9 |
| 20260507142407 | 19 | 194 | 3.2 | 4.8 | 0.00 | 0.00 | 0.00 | 88 | 914.8 |
| 20260507142307 | 19 | 249 | 3.2 | 4.8 | 0.00 | 0.00 | 0.00 | 88 | 914.8 |
| 20260507141807 | 19 | 187 | 1.6 | 4.8 | 0.00 | 0.00 | 0.00 | 88 | 914.8 |
| 20260507141805 | 19 | 184 | 1.6 | 4.8 | 0.00 | 0.00 | 0.00 | 88 | 914.7 |
| 20260507141306 | 18 | 187 | 3.2 | 6.4 | 0.00 | 0.00 | 0.00 | 88 | 914.7 |
| 20260507141207 | 18 | 115 | 3.2 | 8.0 | 0.00 | 0.00 | 0.00 | 88 | 914.7 |
| 20260507140805 | 18 | 151 | 3.2 | 8.0 | 0.00 | 0.00 | 0.00 | 88 | 914.6 |
| 20260507140607 | 18 | 158 | 4.8 | 8.0 | 0.00 | 0.00 | 0.00 | 88 | 914.5 |
| 20260507140305 | 18 | 172 | 1.6 | 8.0 | 0.00 | 0.00 | 0.00 | 88 | 914.6 |
| 20260507140007 | 18 | 168 | 3.2 | 6.4 | 0.00 | 0.00 | 0.00 | 88 | 914.6 |
| 20260507135805 | 18 | 145 | 1.6 | 3.2 | 0.00 | 0.00 | 0.00 | 88 | 914.6 |
| 20260507135407 | 19 | 124 | 1.6 | 3.2 | 0.00 | 0.00 | 0.00 | 88 | 914.5 |
| 20260507135306 | 19 | 115 | 1.6 | 3.2 | 0.00 | 0.00 | 0.00 | 89 | 914.5 |
| 20260507134807 | 19 | 158 | 3.2 | 8.0 | 0.00 | 0.00 | 0.00 | 89 | 914.5 |
| 20260507134805 | 19 | 164 | 3.2 | 8.0 | 0.00 | 0.00 | 0.00 | 89 | 914.5 |
| 20260507134305 | 18 | 124 | 0.0 | 4.8 | 0.00 | 0.00 | 0.00 | 88 | 914.4 |
| 20260507134207 | 19 | 111 | 3.2 | 4.8 | 0.00 | 0.00 | 0.00 | 88 | 914.3 |
| 20260507133805 | 19 | 88 | 1.6 | 4.8 | 0.00 | 0.00 | 0.00 | 88 | 914.3 |
| 20260507133305 | 18 | 79 | 3.2 | 6.4 | 0.00 | 0.00 | 0.00 | 88 | 914.2 |
| 20260507133007 | 18 | 112 | 3.2 | 9.7 | 0.00 | 0.00 | 0.00 | 88 | 914.2 |
| 20260507132805 | 18 | 114 | 4.8 | 9.7 | 0.00 | 0.00 | 0.00 | 89 | 914.2 |
| 20260507132406 | 18 | 103 | 6.4 | 8.0 | 0.00 | 0.00 | 0.00 | 89 | 914.1 |
| 20260507132307 | 18 | 122 | 6.4 | 8.0 | 0.00 | 0.00 | 0.00 | 89 | 914.1 |
| 20260507131808 | 18 | 91 | 4.8 | 6.4 | 0.00 | 0.00 | 0.00 | 89 | 914.1 |
| 20260507131806 | 18 | 97 | 4.8 | 6.4 | 0.00 | 0.00 | 0.00 | 89 | 914.2 |
| 20260507131305 | 19 | 133 | 1.6 | 4.8 | 0.00 | 0.00 | 0.00 | 90 | 914.1 |
| 20260507131206 | 19 | 87 | 0.0 | 3.2 | 0.00 | 0.00 | 0.00 | 90 | 914.1 |
| 20260507130805 | 19 | 360 | 1.6 | 4.8 | 0.00 | 0.00 | 0.00 | 90 | 914.1 |
| 20260507130606 | 19 | 359 | 1.6 | 4.8 | 0.00 | 0.00 | 0.00 | 90 | 914.1 |
| 20260507130305 | 19 | 104 | 1.6 | 4.8 | 0.00 | 0.00 | 0.00 | 90 | 914.0 |
| 20260507130006 | 20 | 119 | 3.2 | 6.4 | 0.00 | 0.00 | 0.00 | 89 | 914.0 |
| 20260507125805 | 20 | 138 | 3.2 | 4.8 | 0.00 | 0.00 | 0.00 | 89 | 914.0 |
| 20260507125406 | 20 | 140 | 0.0 | 1.6 | 0.00 | 0.00 | 0.00 | 89 | 913.9 |
| 20260507125307 | 20 | 124 | 0.0 | 1.6 | 0.00 | 0.00 | 0.00 | 89 | 914.0 |
| 20260507124807 | 20 | 27 | 0.0 | 0.0 | 0.00 | 0.00 | 0.00 | 88 | 913.9 |
| 20260507124805 | 20 | 28 | 0.0 | 0.0 | 0.00 | 0.00 | 0.00 | 88 | 913.9 |
| 20260507124305 | 20 | 79 | 0.0 | 1.6 | 0.00 | 0.00 | 0.00 | 88 | 913.9 |
| 20260507124206 | 20 | 43 | 0.0 | 1.6 | 0.00 | 0.00 | 0.00 | 88 | 913.8 |
| 20260507123805 | 20 | 14 | 1.6 | 3.2 | 0.00 | 0.00 | 0.00 | 88 | 913.7 |
| 20260507123606 | 20 | 49 | 3.2 | 4.8 | 0.00 | 0.00 | 0.00 | 89 | 913.7 |
| 20260507123305 | 20 | 79 | 1.6 | 3.2 | 0.00 | 0.00 | 0.00 | 89 | 913.6 |
| 20260507123006 | 20 | 64 | 0.0 | 1.6 | 0.00 | 0.00 | 0.00 | 90 | 913.6 |
| 20260507122804 | 20 | 119 | 1.6 | 4.8 | 0.00 | 0.00 | 0.00 | 90 | 913.6 |
| 20260507122406 | 20 | 104 | 1.6 | 4.8 | 0.00 | 0.00 | 0.00 | 90 | 913.6 |
| 20260507121806 | 19 | 137 | 0.0 | 4.8 | 0.00 | 0.00 | 0.00 | 91 | 913.6 |
| 20260507121804 | 19 | 138 | 0.0 | 4.8 | 0.00 | 0.00 | 0.00 | 91 | 913.5 |
| 20260507121304 | 20 | 150 | 3.2 | 4.8 | 0.00 | 0.00 | 0.00 | 91 | 913.5 |
| 20260507121206 | 20 | 135 | 3.2 | 4.8 | 0.00 | 0.00 | 0.00 | 91 | 913.5 |
| 20260507120804 | 20 | 128 | 1.6 | 3.2 | 0.00 | 0.00 | 0.00 | 91 | 913.5 |
| 20260507120606 | 20 | 128 | 1.6 | 3.2 | 0.00 | 0.00 | 0.00 | 90 | 913.5 |
| 20260507120305 | 20 | 118 | 1.6 | 3.2 | 0.00 | 0.00 | 0.00 | 90 | 913.5 |
| 20260507120006 | 20 | 132 | 0.0 | 1.6 | 0.00 | 0.00 | 0.00 | 90 | 913.4 |
| 20260507115804 | 20 | 174 | 1.6 | 3.2 | 0.00 | 0.00 | 0.00 | 90 | 913.4 |
| 20260507115406 | 20 | 50 | 0.0 | 0.0 | 0.00 | 0.00 | 0.00 | 90 | 913.4 |
| 20260507115307 | 20 | 347 | 0.0 | 0.0 | 0.00 | 0.00 | 0.00 | 90 | 913.4 |
| 20260507114806 | 19 | 39 | 0.0 | 1.6 | 0.00 | 0.00 | 0.00 | 91 | 913.3 |
| 20260507114804 | 19 | 41 | 0.0 | 1.6 | 0.00 | 0.00 | 0.00 | 91 | 913.3 |
| 20260507114304 | 19 | 129 | 1.6 | 3.2 | 0.00 | 0.00 | 0.00 | 92 | 913.2 |
| 20260507114205 | 19 | 134 | 1.6 | 3.2 | 0.00 | 0.00 | 0.00 | 92 | 913.2 |
| 20260507112405 | 20 | 141 | 0.0 | 4.8 | 0.00 | 0.00 | 0.00 | 91 | 912.9 |
| 20260507112307 | 20 | 193 | 3.2 | 4.8 | 0.00 | 0.00 | 0.00 | 91 | 912.9 |
| 20260507111806 | 20 | 166 | 0.0 | 0.0 | 0.00 | 0.00 | 0.00 | 91 | 913.0 |
| 20260507111804 | 20 | 173 | 0.0 | 0.0 | 0.00 | 0.00 | 0.00 | 91 | 912.9 |
| 20260507110605 | 20 | 134 | 1.6 | 3.2 | 0.00 | 0.00 | 0.00 | 91 | 913.0 |
| 20260507110304 | 20 | 150 | 1.6 | 3.2 | 0.00 | 0.00 | 0.00 | 91 | 912.9 |
| 20260507110005 | 20 | 176 | 1.6 | 3.2 | 0.00 | 0.00 | 0.00 | 91 | 912.9 |
| 20260507105804 | 20 | 187 | 3.2 | 6.4 | 0.00 | 0.00 | 0.00 | 91 | 912.9 |
| 20260507105405 | 20 | 189 | 1.6 | 4.8 | 0.00 | 0.00 | 0.00 | 92 | 912.9 |
| 20260507104804 | 20 | 202 | 3.2 | 6.4 | 0.00 | 0.00 | 0.00 | 92 | 912.9 |
| 20260507104304 | 20 | 197 | 3.2 | 3.2 | 0.00 | 0.00 | 0.00 | 92 | 912.9 |
| 20260507104205 | 20 | 213 | 1.6 | 3.2 | 0.00 | 0.00 | 0.00 | 92 | 912.9 |
| 20260507103804 | 20 | 321 | 0.0 | 0.0 | 0.00 | 0.00 | 0.00 | 93 | 912.9 |
| 20260507103605 | 19 | 197 | 0.0 | 0.0 | 0.00 | 0.00 | 0.00 | 93 | 912.9 |
| 20260507103304 | 19 | 199 | 3.2 | 6.4 | 0.00 | 0.00 | 0.00 | 94 | 912.8 |
| 20260507103005 | 19 | 205 | 0.0 | 4.8 | 0.00 | 0.00 | 0.00 | 94 | 912.8 |
| 20260507102804 | 19 | 267 | 0.0 | 1.6 | 0.00 | 0.00 | 0.00 | 95 | 912.7 |
| 20260507102405 | 20 | 136 | 0.0 | 3.2 | 0.00 | 0.00 | 0.00 | 95 | 912.7 |
| 20260507102306 | 20 | 135 | 0.0 | 3.2 | 0.00 | 0.00 | 0.00 | 95 | 912.7 |
| 20260507101806 | 20 | 134 | 0.0 | 1.6 | 0.00 | 0.00 | 0.00 | 95 | 912.7 |
| 20260507101804 | 20 | 135 | 0.0 | 1.6 | 0.00 | 0.00 | 0.00 | 95 | 912.7 |
| 20260507095405 | 20 | 174 | 0.0 | 4.8 | 0.00 | 0.00 | 0.00 | 96 | 912.6 |
| 20260507093803 | 20 | 181 | 4.8 | 6.4 | 0.00 | 0.00 | 0.00 | 95 | 912.5 |
| 20260507093606 | 20 | 214 | 0.0 | 0.0 | 0.00 | 0.00 | 0.00 | 95 | 912.6 |
| 20260507093303 | 20 | 210 | 3.2 | 6.4 | 0.00 | 0.00 | 0.00 | 95 | 912.6 |
| 20260507093004 | 20 | 201 | 4.8 | 8.0 | 0.00 | 0.00 | 0.00 | 95 | 912.5 |
| 20260507092803 | 20 | 210 | 0.0 | 6.4 | 0.00 | 0.00 | 0.00 | 95 | 912.5 |
| 20260507092404 | 20 | 212 | 4.8 | 8.0 | 0.00 | 0.00 | 0.00 | 95 | 912.5 |
| 20260507092306 | 20 | 184 | 4.8 | 8.0 | 0.00 | 0.00 | 0.00 | 95 | 912.5 |
| 20260507091805 | 20 | 265 | 4.8 | 9.7 | 0.00 | 0.00 | 0.00 | 94 | 912.5 |
| 20260507091803 | 20 | 264 | 4.8 | 9.7 | 0.00 | 0.00 | 0.00 | 94 | 912.5 |
| 20260507091303 | 20 | 214 | 6.4 | 9.7 | 0.00 | 0.00 | 0.00 | 95 | 912.5 |
| 20260507091204 | 20 | 208 | 4.8 | 9.7 | 0.00 | 0.00 | 0.00 | 95 | 912.6 |
| 20260507090604 | 20 | 250 | 3.2 | 8.0 | 0.00 | 0.00 | 0.00 | 95 | 912.5 |
| 20260507090304 | 20 | 228 | 6.4 | 9.7 | 0.00 | 0.00 | 0.00 | 95 | 912.5 |
| 20260507090006 | 20 | 218 | 6.4 | 11.3 | 0.00 | 0.00 | 0.00 | 94 | 912.5 |
| 20260507085404 | 20 | 185 | 4.8 | 8.0 | 0.00 | 0.00 | 0.00 | 95 | 912.5 |
| 20260507085306 | 20 | 221 | 4.8 | 8.0 | 0.00 | 0.00 | 0.00 | 95 | 912.5 |
| 20260507084805 | 20 | 220 | 4.8 | 6.4 | 0.00 | 0.00 | 0.00 | 95 | 912.6 |
| 20260507084803 | 20 | 203 | 4.8 | 6.4 | 0.00 | 0.00 | 0.00 | 95 | 912.6 |
| 20260507084303 | 20 | 240 | 6.4 | 11.3 | 0.00 | 0.00 | 0.00 | 95 | 912.6 |
| 20260507084204 | 20 | 206 | 6.4 | 11.3 | 0.00 | 0.00 | 0.00 | 95 | 912.6 |
| 20260507083803 | 20 | 219 | 6.4 | 11.3 | 0.00 | 0.00 | 0.00 | 94 | 912.6 |
| 20260507083604 | 20 | 226 | 3.2 | 11.3 | 0.00 | 0.00 | 0.00 | 94 | 912.5 |
| 20260507083303 | 20 | 200 | 4.8 | 9.7 | 0.00 | 0.00 | 0.00 | 94 | 912.5 |
| 20260507083004 | 20 | 220 | 1.6 | 8.0 | 0.00 | 0.00 | 0.00 | 94 | 912.6 |
| 20260507082803 | 20 | 186 | 0.0 | 8.0 | 0.00 | 0.00 | 0.00 | 94 | 912.6 |
| 20260507082404 | 20 | 227 | 1.6 | 8.0 | 0.00 | 0.00 | 0.00 | 94 | 912.5 |
| 20260507082306 | 20 | 200 | 0.0 | 6.4 | 0.00 | 0.00 | 0.00 | 95 | 912.6 |
| 20260507081804 | 20 | 224 | 6.4 | 11.3 | 0.00 | 0.00 | 0.00 | 94 | 912.5 |
| 20260507081303 | 20 | 209 | 6.4 | 11.3 | 0.00 | 0.00 | 0.00 | 94 | 912.6 |
| 20260507081204 | 20 | 208 | 8.0 | 11.3 | 0.00 | 0.00 | 0.00 | 94 | 912.6 |
| 20260507080804 | 20 | 184 | 1.6 | 9.7 | 0.00 | 0.00 | 0.00 | 94 | 912.6 |
| 20260507080604 | 20 | 198 | 6.4 | 16.1 | 0.00 | 0.00 | 0.00 | 94 | 912.7 |
| 20260507080302 | 20 | 245 | 8.0 | 16.1 | 0.00 | 0.00 | 0.00 | 94 | 912.7 |
| 20260507080004 | 20 | 194 | 4.8 | 12.9 | 0.00 | 0.00 | 0.00 | 94 | 912.8 |
| 20260507075802 | 20 | 235 | 6.4 | 12.9 | 0.00 | 0.00 | 0.00 | 93 | 912.8 |
| 20260507075404 | 20 | 259 | 3.2 | 11.3 | 0.00 | 0.00 | 0.00 | 94 | 912.8 |
| 20260507075306 | 20 | 213 | 0.0 | 9.7 | 0.00 | 0.00 | 0.00 | 95 | 912.9 |
| 20260507074802 | 20 | 225 | 0.0 | 11.3 | 0.00 | 0.00 | 0.00 | 93 | 912.9 |
| 20260507074302 | 21 | 206 | 9.7 | 14.5 | 0.00 | 0.00 | 0.00 | 93 | 912.9 |
| 20260507074204 | 21 | 177 | 8.0 | 14.5 | 0.00 | 0.00 | 0.00 | 93 | 912.9 |
| 20260507073802 | 21 | 207 | 4.8 | 9.7 | 0.00 | 0.00 | 0.00 | 93 | 913.0 |
| 20260507073603 | 21 | 221 | 1.6 | 9.7 | 0.00 | 0.00 | 0.00 | 94 | 913.1 |
| 20260507073302 | 20 | 209 | 0.0 | 6.4 | 0.00 | 0.00 | 0.00 | 93 | 913.0 |
| 20260507073004 | 21 | 205 | 9.7 | 14.5 | 0.00 | 0.00 | 0.00 | 93 | 913.0 |
| 20260507072803 | 21 | 189 | 11.3 | 17.7 | 0.00 | 0.00 | 0.00 | 93 | 913.0 |
| 20260507072403 | 20 | 219 | 0.0 | 9.7 | 0.00 | 0.00 | 0.00 | 94 | 913.0 |
| 20260507072306 | 20 | 201 | 11.3 | 19.3 | 0.00 | 0.00 | 0.00 | 93 | 913.0 |
| 20260507071804 | 21 | 219 | 11.3 | 19.3 | 0.00 | 0.00 | 0.00 | 94 | 913.0 |
| 20260507071302 | 20 | 177 | 3.2 | 17.7 | 0.00 | 0.00 | 0.00 | 93 | 913.0 |
| 20260507071203 | 20 | 207 | 0.0 | 0.0 | 0.00 | 0.00 | 0.00 | 93 | 913.2 |
| 20260507070805 | 21 | 207 | 9.7 | 19.3 | 0.00 | 0.00 | 0.00 | 93 | 913.2 |
| 20260507070603 | 21 | 217 | 8.0 | 14.5 | 0.00 | 0.00 | 0.00 | 94 | 913.2 |
| 20260507070303 | 20 | 238 | 0.0 | 8.0 | 0.00 | 0.00 | 0.00 | 94 | 913.3 |
| 20260507070007 | 20 | 226 | 8.0 | 19.3 | 0.00 | 0.00 | 0.00 | 93 | 913.3 |
| 20260507065808 | 20 | 190 | 11.3 | 19.3 | 0.00 | 0.00 | 0.00 | 93 | 913.2 |
| 20260507065403 | 20 | 206 | 11.3 | 19.3 | 0.00 | 0.00 | 0.00 | 93 | 913.4 |
| 20260507065305 | 21 | 219 | 9.7 | 19.3 | 0.00 | 0.00 | 0.00 | 93 | 913.4 |
| 20260507064805 | 21 | 200 | 0.0 | 9.7 | 0.00 | 0.00 | 0.00 | 92 | 913.4 |
| 20260507064302 | 21 | 204 | 11.3 | 16.1 | 0.00 | 0.00 | 0.00 | 91 | 913.4 |
| 20260507064203 | 21 | 214 | 9.7 | 14.5 | 0.00 | 0.00 | 0.00 | 91 | 913.4 |
| 20260507063802 | 21 | 207 | 9.7 | 17.7 | 0.00 | 0.00 | 0.00 | 91 | 913.5 |
| 20260507063603 | 21 | 247 | 9.7 | 14.5 | 0.00 | 0.00 | 0.00 | 91 | 913.5 |
| 20260507063003 | 21 | 166 | 8.0 | 14.5 | 0.00 | 0.00 | 0.00 | 92 | 913.6 |
| 20260507062802 | 21 | 238 | 6.4 | 16.1 | 0.00 | 0.00 | 0.00 | 92 | 913.6 |
| 20260507062403 | 21 | 213 | 9.7 | 16.1 | 0.00 | 0.00 | 0.00 | 91 | 913.7 |
| 20260507062305 | 21 | 221 | 9.7 | 16.1 | 0.00 | 0.00 | 0.00 | 91 | 913.7 |
| 20260507061803 | 21 | 245 | 4.8 | 14.5 | 0.00 | 0.00 | 0.00 | 92 | 913.8 |
| 20260507061302 | 21 | 209 | 1.6 | 14.5 | 0.00 | 0.00 | 0.00 | 90 | 913.7 |
| 20260507060801 | 21 | 192 | 9.7 | 16.1 | 0.00 | 0.00 | 0.00 | 90 | 913.8 |
| 20260507060603 | 21 | 210 | 9.7 | 16.1 | 0.00 | 0.00 | 0.00 | 90 | 913.8 |
| 20260507060302 | 21 | 205 | 8.0 | 12.9 | 0.00 | 0.00 | 0.00 | 90 | 913.8 |
| 20260507060003 | 21 | 198 | 0.0 | 8.0 | 0.00 | 0.00 | 0.00 | 88 | 913.9 |
| 20260507055802 | 22 | 225 | 1.6 | 9.7 | 0.00 | 0.00 | 0.00 | 88 | 913.9 |
| 20260507055403 | 21 | 162 | 6.4 | 14.5 | 0.00 | 0.00 | 0.00 | 90 | 913.9 |
| 20260507055305 | 21 | 210 | 9.7 | 14.5 | 0.00 | 0.00 | 0.00 | 90 | 913.9 |
| 20260507054803 | 21 | 175 | 6.4 | 9.7 | 0.00 | 0.00 | 0.00 | 92 | 913.9 |
| 20260507054301 | 21 | 194 | 6.4 | 11.3 | 0.00 | 0.00 | 0.00 | 92 | 914.1 |
| 20260507054203 | 21 | 204 | 3.2 | 9.7 | 0.00 | 0.00 | 0.00 | 92 | 914.1 |
| 20260507053801 | 21 | 220 | 8.0 | 14.5 | 0.00 | 0.00 | 0.00 | 91 | 914.1 |
| 20260507053603 | 21 | 242 | 8.0 | 12.9 | 0.00 | 0.00 | 0.00 | 91 | 914.1 |
| 20260507053301 | 21 | 167 | 4.8 | 8.0 | 0.00 | 0.00 | 0.00 | 91 | 914.1 |
| 20260507053003 | 21 | 191 | 1.6 | 8.0 | 0.00 | 0.00 | 0.00 | 90 | 914.2 |
| 20260507052803 | 22 | 165 | 9.7 | 16.1 | 0.00 | 0.00 | 0.00 | 89 | 914.2 |
| 20260507052403 | 22 | 186 | 3.2 | 16.1 | 0.00 | 0.00 | 0.00 | 89 | 914.2 |
| 20260507052301 | 22 | 251 | 6.4 | 16.1 | 0.00 | 0.00 | 0.00 | 88 | 914.2 |
| 20260507051801 | 22 | 207 | 6.4 | 16.1 | 0.00 | 0.00 | 0.00 | 90 | 914.2 |
| 20260507051301 | 22 | 213 | 6.4 | 19.3 | 0.00 | 0.00 | 0.00 | 89 | 914.3 |
| 20260507051203 | 22 | 206 | 0.0 | 14.5 | 0.00 | 0.00 | 0.00 | 89 | 914.3 |